Tracking 29892 objects as of 21-Nov-2024
HD Live streaming from Space Station
objects crossing your sky now

STARLINK-6100

Track STARLINK-6100 now!
10-day predictions
STARLINK-6100 is classified as:


NORAD ID: 57125
Int'l Code: 2023-090AA
Perigee: 565.6 km
Apogee: 566.9 km
Inclination: 43.0 °
Period: 95.8 minutes
Semi major axis: 6937 km
RCS: Unknown
Launch date: June 23, 2023
Source: United States (US)
Launch site: AIR FORCE EASTERN TEST RANGE (AFETR)
Your satellite tracking list
Your tracking list is empty




NASA's NSSDC Master Catalog

Two Line Element Set (TLE):
1 57125U 23090AA  24325.99669832  .00000921  00000-0  83271-4 0  9999
2 57125  43.0030 315.8916 0000900 270.3511  89.7229 15.02533001 78162
Source of the keplerian elements: AFSPC